Tracking 31027 objects as of 19-Jul-2025
HD Live streaming from Space Station
objects crossing your sky now

SL-24 R/B

Track SL-24 R/B now!
10-day predictions


NORAD ID: 27610
Int'l Code: 2002-058F
Perigee: 597.0 km
Apogee: 1,004.9 km
Inclination: 64.6 °
Period: 100.7 minutes
Semi major axis: 7171 km
RCS: 7.1875 m2 (large)
Launch date: December 20, 2002
Source: Commonwealth of Independent States (former USSR) (CIS)
Launch site: TYURATAM MISSILE AND SPACE COMPLEX (TTMTR)

Note: This is a ROCKET BODY
Your satellite tracking list
ONEWEB-0142
Track 1 satellite(s)




NASA's NSSDC Master Catalog

Two Line Element Set (TLE):
1 27610U 02058F   25199.01391112  .00000082  00000-0  53492-4 0  9992
2 27610  64.5585  39.9754 0284415 167.1820 351.7336 14.29376760177140
Source of the keplerian elements: AFSPC